Regional Weather Roundup
Issued by NWS Portland, ME

Current Version | Previous Version | Text Only | Print | Product List | Glossary Off
Versions: 1 2 3 4 5 6 7 8 9 10 11 12 13 14 15 16 17 18 19 20 21 22 23 24 25 26 27 28 29 30 31 32 33 34 35 36 37 38 39 40 41 42 43 44 45 46 47 48 49 50
013 ASUS41 KGYX 202310 RWRGYX WEATHER ROUNDUP FOR MAINE AND NEW HAMPSHIRE NATIONAL WEATHER SERVICE GRAY ME 700 PM EDT MON AUG 20 2018 MEZ002-005-006-010-012-015-018-020-021-024-026-027-029-210000- MAINE CITY SKY/WX TMP DP RH WIND PRES REMARKS PORTLAND FAIR 67 58 72 SE7 30.18R SANFORD FAIR 67 58 72 CALM 30.18S BAR HARBOR MOCLDY 68 56 65 E3 30.18R WISCASSET MOCLDY 67 57 70 SE5 30.19S ROCKLAND FAIR 63 58 83 E5 30.18R FRYEBURG FAIR 70 60 70 SE8 30.17R LEWISTONAUBURN N/A 67 59 75 S6 30.18R AUGUSTA CLOUDY 70 59 68 S7 30.17S WATERVILLE FAIR 70 60 70 SW5 30.14 BANGOR MOCLDY 72 62 71 S7 30.16R GREENVILLE N/A 67 54 63 CALM 30.17R MILLINOCKET FAIR 71 56 58 SE3 30.17S HOULTON FAIR 67 58 72 SE6 30.16S PRESQUE ISLE FAIR 69 54 58 SE3 30.18R FRENCHVILLE FAIR 70 51 51 S9 30.16S CARIBOU FAIR 70 53 54 S7 30.16S $$ NHZ002-005-008-009-011-012-014-210000- NEW HAMPSHIRE CITY SKY/WX TMP DP RH WIND PRES REMARKS PORTSMOUTH CLEAR 68 57 67 E3 30.15F ROCHESTER FAIR 68 60 75 E3 30.17S NASHUA FAIR 72 61 68 SE7 30.16S MANCHESTER FAIR 72 58 61 SE7 30.15R CONCORD FAIR 71 59 65 SE5 30.16R LACONIA FAIR 70 59 68 SE3 30.17R PLYMOUTH FAIR 72 60 66 CALM 30.15R BERLIN FAIR 71 57 61 SE7 30.16S WHITEFIELD MOCLDY 73 59 61 E3 30.15R JAFFREY FAIR 70 59 68 CALM 30.19R KEENE FAIR N/A N/A N/A CALM 30.15S LEBANON FAIR 72 60 66 SE3 30.13S MT WASHINGTON FOG 52 50 93 W6 N/A VSB 3/8 $$ VTZ005-007-008-210000- VERMONT CITY SKY/WX TMP DP RH WIND PRES REMARKS ST JOHNSBURY N/A 74 58 57 MISG 30.11S MONTPELIER FAIR 71 56 58 S8 30.18S BURLINGTON FAIR 80 57 45 W5 30.10R $$ MAZ007-012-024-CTZ003-RIZ002-NYZ038-NYZ072-210000- SOUTHERN NEW ENGLAND AND NY CITY SKY/WX TMP DP RH WIND PRES REMARKS BOSTON FAIR 70 61 73 E13 30.16S WORCESTER CLOUDY 68 59 73 E7 30.17R NANTUCKET CLOUDY 66 65 96 NE15 30.10S PROVIDENCE FAIR 71 58 63 NE14 30.14S HARTFORD MOCLDY 74 60 61 E7 30.13R ALBANY FAIR 77 58 51 SE3 30.11S NEW YORK CITY FAIR 74 64 71 S7 30.11S $$ ANZ081-ANZ082-ANZ150-NHZ014-MEZ023>029-210000- COASTAL MARINE OBSERVATIONS STATION/POSITION TIME TEMP WIND PRES WAVE AIR SEA DIR/SP/G HT/PER (UTC) (F) (DEG/KT/KT) (MB) (FT/S) MOUNT DESERT ROC 2300 62 70/ 12/ 12 1021.6R MATINICUS ROCK 2200 64 90/ 7/ 8 1021.4F ISLE OF SHOALS 2200 66 50/ 5/ 6 1021.1F JEFFREYS LEDGE 2236 69 N/A 5/ 7 $$ .............KEY.............. WCI - WIND CHILL TC - TEMPERATURE IN CELSIUS VSB - VISIBILITY IN MILES HX - HEAT INDEX FAIR- INDICATES FEW OR NO CLOUDS BELOW 12,000 FT, WITH NO SIGNIFICANT WEATHER AND/OR OBSTRUCTIONS TO VISIBILITY.

USA.gov is the U.S. government's official web portal to all federal, state and local government web resources and services.